Location: Anna District 4 Election Precinct
(37.4833°N, 89.2195°W)
Time: 15:07:12
(UTC+00:00)

NOSS 3-3 (C) - Pass Details

Date: 29 October 2020
Orbit: 827 x 1385 km, 63.5° (Epoch: 29 November)

Event Time Altitude Azimuth Distance (km) Brightness Sun altitude
Rises 23:22:01 0° 193° (SSW) 3,363 7.2 -4.8°
Reaches altitude 10° 23:24:27 10° 188° (S) 2,458 6.4 -5.3°
Maximum altitude 23:29:50 48° 115° (ESE) 1,152 4.1 -6.3°
Drops below altitude 10° 23:35:47 10° 43° (NE) 2,713 5.8 -7.5°
Sets 23:38:35 0° 38° (NE) 3,748 6.6 -8.0°
